This is the latest recevied weather packets stored in our database for station/object W9PEM-13. If no packets are shown the sender has not sent any weather packets the latest 10 day(s).
| Time | Temp. | Humidity | Pressure | Rain* | Wind** | Luminosity | Snow |
|---|---|---|---|---|---|---|---|
| 1777903073 | 18.89° C | 41% | 970.2 hPa | 0 mm | - | 355 W/m² | - |
| 1777901873 | 17.78° C | 42% | 970.6 hPa | 0 mm | - | 444 W/m² | - |
| 1777901273 | 17.78° C | 44% | 970.7 hPa | 0 mm | - | 411 W/m² | - |
| 1777900673 | 17.22° C | 44% | 970.8 hPa | 0 mm | - | 378 W/m² | - |
| 1777900073 | 16.67° C | 46% | 970.9 hPa | 0 mm | - | 347 W/m² | - |
| 1777899473 | 16.67° C | 47% | 971 hPa | 0 mm | - | 317 W/m² | - |
| 1777897674 | 14.44° C | 51% | 971.2 hPa | 0 mm | - | 220 W/m² | - |
| 1777897074 | 13.89° C | 52% | 971.3 hPa | 0 mm | - | 180 W/m² | - |
| 1777896472 | 13.89° C | 53% | 971.3 hPa | 0 mm | - | 158 W/m² | - |
| 1777895872 | 13.33° C | 54% | 971.4 hPa | 0 mm | - | 134 W/m² | - |
| 1777895273 | 12.22° C | 59% | 971.2 hPa | 0 mm | - | 94 W/m² | - |
| 1777894673 | 10.56° C | 65% | 971.3 hPa | 0 mm | - | 53 W/m² | - |
| 1777894072 | 10° C | 68% | 971.2 hPa | 0 mm | - | 45 W/m² | - |
| 1777893473 | 10° C | 66% | 971.2 hPa | 0 mm | - | 32 W/m² | - |
| 1777892873 | 9.44° C | 68% | 971.1 hPa | 0 mm | - | 20 W/m² | - |
| 1777892272 | 9.44° C | 68% | 971.1 hPa | 0 mm | - | 13 W/m² | - |
| 1777891672 | 9.44° C | 67% | 971.1 hPa | 0 mm | - | 6 W/m² | - |
| 1777891073 | 10° C | 67% | 971 hPa | 0 mm | - | 3 W/m² | - |
| 1777890472 | 10° C | 66% | 971.2 hPa | 0 mm | - | 1 W/m² | - |
| 1777889872 | 10° C | 67% | 971.3 hPa | 0 mm | - | 0 W/m² | - |
| 1777889272 | 10° C | 66% | 971.4 hPa | 0 mm | - | 0 W/m² | - |
| 1777888672 | 10° C | 69% | 971.6 hPa | 0 mm | - | 0 W/m² | - |
| 1777888072 | 10° C | 65% | 971.7 hPa | 0 mm | - | 0 W/m² | - |
| 1777887472 | 9.44° C | 66% | 971.8 hPa | 0 mm | - | 0 W/m² | - |
| 1777886872 | 8.33° C | 72% | 971.9 hPa | 0 mm | - | 0 W/m² | - |
* Rain latest hour (hover to see other rain measurements)
** Current wind speed in m/s (hover to see current wind gust speed)